Location: Bosdarros
(43.2167°N, 0.3667°W)
Time: 16:18:17
(UTC+00:00)

COSMOS 2428 - Pass Details

Date: 22 April 2021
Orbit: 844 x 859 km, 70.9° (Epoch: 13 May)

Event Time Altitude Azimuth Distance (km) Brightness Sun altitude
Rises 19:50:01 0° 331° (NNW) 3,442 6.9 -10.4°
Reaches altitude 10° 19:52:30 10° 328° (NNW) 2,502 6.2 -10.8°
Maximum altitude 19:58:08 58° 250° (WSW) 997 3.3 -11.7°
Drops below altitude 10° 20:03:43 10° 173° (S) 2,484 4.8 -12.6°
Enters shadow 20:05:18 - 170° (S) 3,073 5.2 -12.8°
